{"data":{"norad_id":66788,"epoch":"2026-09-20T11:03:35.952192Z","epoch_age_seconds":120955,"freshness":"FRESH","line1":"1 66788U 25276EC  26263.46083278  .00005720  00000+0  24615-3 0  9998","line2":"2 66788  97.4161 335.9597 0006138 141.9638 218.2033 15.22998167 44924","mean_motion":15.22998167,"eccentricity":0.0006138,"inclination_deg":97.4161,"raan_deg":335.9597,"arg_perigee_deg":141.9638,"mean_anomaly_deg":218.2033,"bstar":0.00024615,"rev_number":4492,"period_min":94.55034360524,"perigee_km":492.58329812439,"apogee_km":501.02297463581,"semimajor_km":6874.9401363801,"source":"CELESTRAK","updated_at":"2026-09-21T09:00:16.221973Z"}}